Date String (YYYY-MM-DD hh:mm:ss) UTC,Instrument flags,absolute air pressure of the measurement (hPa),sample flow rate (lpm),inlet stack bypass flow (lpm),air temperature of the measurement (°C),ambient temperature measured by the external sensor (°C),aerosol sample conditioner tube jacket temperature (°C),OPC LED temperature (°C),internal box temperature (°C),relative humidity of the measurement (%),span deviation,mass concentration of particles derived from Lorenz-Mie calculation of OPC scattering (μg/m³),mass concentration of particles derived from Lorenz-Mie calculation of OPC scattering (μg/m³),mass concentration of particles derived from Lorenz-Mie calculation of OPC scattering (μg/m³)
DateTimeUTC,F1_M11,P_M11,Q1_M11,Q2_M11,T1_M11,T2_M11,T3_M11,T4_M11,T5_M11,U1_M11,ZSPAN_M11,X0_M11,X2_M11,X1_M11
2023-12-28 12:00:00,SystemResetWarning,0831.3,5.00,000.00,018.6,017.5,000.0,027.1,020.0,9.1,0000.0,0001.28,0000.69,0000.61
2023-12-28 12:01:00,SystemResetWarning,0831.3,5.00,000.00,018.6,017.5,000.0,027.1,020.0,9.1,0000.0,0001.28,0000.71,0000.61
2023-12-28 12:02:00,SystemResetWarning,0831.3,4.99,000.00,018.6,017.5,000.0,027.1,020.0,9.0,0000.0,0001.26,0000.74,0000.62
2023-12-28 12:03:00,SystemResetWarning,0831.2,4.99,000.00,018.6,017.5,000.0,027.1,020.0,9.0,0000.0,0001.24,0000.72,0000.61
2023-12-28 12:04:00,SystemResetWarning,0831.2,5.00,000.00,018.6,017.4,000.0,027.1,020.0,9.0,0000.0,0001.25,0000.72,0000.60
2023-12-28 12:05:00,SystemResetWarning,0831.3,5.01,000.00,018.6,017.4,000.0,027.1,020.0,9.0,0000.0,0001.24,0000.71,0000.59
2023-12-28 12:06:00,SystemResetWarning,0831.3,5.01,000.00,018.6,017.4,000.0,027.1,020.0,9.0,0000.0,0001.25,0000.72,0000.59
2023-12-28 12:07:00,SystemResetWarning,0831.3,5.01,000.00,018.6,017.4,000.0,027.1,020.0,8.9,0000.0,0001.25,0000.72,0000.58
2023-12-28 12:08:00,SystemResetWarning,0831.3,5.00,000.00,018.6,017.5,000.0,027.1,020.1,8.9,0000.0,0001.28,0000.72,0000.57
2023-12-28 12:09:00,SystemResetWarning,0831.3,5.00,000.00,018.7,018.1,000.0,027.1,020.5,8.8,0000.0,0001.29,0000.74,0000.57
2023-12-28 12:10:00,SystemResetWarning,0831.3,4.99,000.00,018.9,018.7,000.0,027.1,020.7,8.8,0000.0,0001.10,0000.74,0000.57
2023-12-28 12:11:00,SystemResetWarning,0831.3,4.99,000.00,018.9,018.7,000.0,027.1,020.5,8.7,0000.0,0001.07,0000.72,0000.56
2023-12-28 12:12:00,SystemResetWarning,0831.3,5.01,000.00,018.9,018.6,000.0,027.1,020.3,8.6,0000.0,0000.99,0000.70,0000.56
2023-12-28 12:13:00,SystemResetWarning,0831.3,5.00,000.00,018.9,018.5,000.0,027.1,020.2,8.6,0000.0,0000.92,0000.67,0000.55
2023-12-28 12:14:00,SystemResetWarning,0831.3,5.00,000.00,018.9,018.4,000.0,027.1,020.2,8.7,0000.0,0000.92,0000.67,0000.55
2023-12-28 12:15:00,SystemResetWarning,0831.3,5.00,000.00,018.9,018.3,000.0,027.1,020.2,8.7,0000.0,0000.93,0000.67,0000.55
2023-12-28 12:16:00,SystemResetWarning,0831.3,5.00,000.00,018.8,018.2,000.0,027.1,020.1,8.7,0000.0,0000.98,0000.69,0000.56
2023-12-28 12:17:00,SystemResetWarning,0831.2,5.00,000.00,018.8,018.1,000.0,027.1,020.1,8.7,0000.0,0000.98,0000.69,0000.55
2023-12-28 12:18:00,SystemResetWarning,0831.2,5.00,000.00,018.8,018.1,000.0,027.1,020.1,8.6,0000.0,0000.91,0000.66,0000.55
2023-12-28 12:19:00,SystemResetWarning,0831.2,5.01,000.00,018.8,018.0,000.0,027.1,020.0,8.6,0000.0,0000.89,0000.64,0000.55
2023-12-28 12:20:00,SystemResetWarning,0831.2,5.01,000.00,018.8,018.0,000.0,027.1,020.0,8.6,0000.0,0000.83,0000.61,0000.54
2023-12-28 12:21:00,SystemResetWarning,0831.2,4.99,000.00,018.8,017.9,000.0,027.1,020.0,8.6,0000.0,0001.79,0000.60,0000.54
2023-12-28 12:22:00,SystemResetWarning,0831.2,4.99,000.00,018.7,017.8,000.0,027.1,020.0,8.6,0000.0,0002.22,0000.61,0000.54
2023-12-28 12:23:00,SystemResetWarning,0831.3,4.99,000.00,018.7,017.8,000.0,027.1,020.0,8.6,0000.0,0002.22,0000.60,0000.53
2023-12-28 12:24:00,SystemResetWarning,0831.3,5.00,000.00,018.7,017.7,000.0,027.1,020.0,8.6,0000.0,0002.24,0000.62,0000.54
2023-12-28 12:25:00,SystemResetWarning,0831.3,5.01,000.00,018.7,017.7,000.0,027.1,020.0,8.6,0000.0,0002.27,0000.64,0000.54
2023-12-28 12:26:00,SystemResetWarning,0831.3,5.01,000.00,018.7,017.6,000.0,027.1,020.0,8.6,0000.0,0002.25,0000.62,0000.53
2023-12-28 12:27:00,SystemResetWarning,0831.3,4.99,000.00,018.7,017.6,000.0,027.1,020.0,8.7,0000.0,0002.19,0000.60,0000.52
2023-12-28 12:28:00,SystemResetWarning,0831.3,4.99,000.00,018.7,017.6,000.0,027.1,020.0,8.7,0000.0,0002.17,0000.60,0000.52
2023-12-28 12:29:00,SystemResetWarning,0831.3,5.00,000.00,018.7,017.5,000.0,027.1,020.0,8.8,0000.0,0002.17,0000.60,0000.52
2023-12-28 12:30:00,SystemResetWarning,0831.3,5.01,000.00,018.7,017.5,000.0,027.1,020.0,8.8,0000.0,0002.17,0000.60,0000.52
2023-12-28 12:31:00,SystemResetWarning,0831.4,5.00,000.00,018.7,017.4,000.0,027.1,020.0,8.8,0000.0,0002.19,0000.62,0000.53
2023-12-28 12:32:00,SystemResetWarning,0831.4,5.00,000.00,018.7,017.4,000.0,027.1,020.0,8.7,0000.0,0001.32,0000.62,0000.53
2023-12-28 12:33:00,SystemResetWarning,0831.3,5.00,000.00,018.7,017.4,000.0,027.1,020.0,8.7,0000.0,0000.77,0000.61,0000.53
2023-12-28 12:34:00,SystemResetWarning,0831.3,5.00,000.00,018.7,017.4,000.0,027.1,020.0,8.8,0000.0,0000.75,0000.60,0000.52
2023-12-28 12:35:00,SystemResetWarning,0831.4,5.00,000.00,018.7,017.4,000.0,027.1,020.0,8.6,0000.0,0000.72,0000.58,0000.52
2023-12-28 12:36:00,SystemResetWarning,0831.3,4.99,000.00,018.7,017.4,000.0,027.1,020.0,8.6,0000.0,0000.67,0000.55,0000.51
2023-12-28 12:37:00,SystemResetWarning,0831.4,4.99,000.00,018.6,017.4,000.0,027.1,020.0,8.6,0000.0,0000.66,0000.53,0000.50
2023-12-28 12:38:00,SystemResetWarning,0831.4,5.00,000.00,018.6,017.4,000.0,027.1,020.0,8.6,0000.0,0000.64,0000.52,0000.49
2023-12-28 12:39:00,SystemResetWarning,0831.4,5.00,000.00,018.6,017.4,000.0,027.1,020.0,8.6,0000.0,0000.75,0000.52,0000.48
2023-12-28 12:40:00,SystemResetWarning,0831.5,5.00,000.00,018.6,017.4,000.0,027.1,020.0,8.6,0000.0,0000.83,0000.53,0000.48
2023-12-28 12:41:00,SystemResetWarning,0831.5,5.00,000.00,018.6,017.4,000.0,027.1,020.0,8.6,0000.0,0000.81,0000.52,0000.47
2023-12-28 12:42:00,SystemResetWarning,0831.4,5.02,000.00,018.7,017.7,000.0,027.1,020.3,8.6,0000.0,0000.80,0000.52,0000.46
2023-12-28 12:43:00,SystemResetWarning,0831.5,5.00,000.00,018.8,018.5,000.0,027.1,020.7,8.6,0000.0,0000.81,0000.51,0000.44
2023-12-28 12:44:00,SystemResetWarning,0831.5,4.99,000.00,018.9,018.9,000.0,027.1,020.7,8.5,0000.0,0000.81,0000.50,0000.43
2023-12-28 12:45:00,SystemResetWarning,0831.5,4.99,000.00,019.0,018.8,000.0,027.1,020.5,8.5,0000.0,0000.85,0000.51,0000.42
2023-12-28 12:46:00,SystemResetWarning,0831.4,5.00,000.00,019.0,018.7,000.0,027.1,020.3,8.5,0000.0,0000.86,0000.51,0000.42
2023-12-28 12:47:00,SystemResetWarning,0831.4,5.00,000.00,018.9,018.6,000.0,027.1,020.2,8.5,0000.0,0000.87,0000.51,0000.42
2023-12-28 12:48:00,SystemResetWarning,0831.5,5.01,000.00,018.9,018.4,000.0,027.1,020.2,8.4,0000.0,0000.98,0000.51,0000.42
2023-12-28 12:49:00,SystemResetWarning,0831.5,5.01,000.00,018.9,018.3,000.0,027.1,020.1,8.4,0000.0,0001.62,0000.53,0000.42
2023-12-28 12:50:00,SystemResetWarning,0831.5,5.00,000.00,018.9,018.2,000.0,027.1,020.1,8.4,0000.0,0001.51,0000.53,0000.43
2023-12-28 12:51:00,SystemResetWarning,0831.5,5.00,000.00,018.9,018.1,000.0,027.1,020.1,8.4,0000.0,0001.44,0000.52,0000.43
2023-12-28 12:52:00,SystemResetWarning,0831.5,5.00,000.00,018.8,018.0,000.0,027.1,020.0,8.4,0000.0,0001.42,0000.52,0000.43
2023-12-28 12:53:00,SystemResetWarning,0831.5,5.00,000.00,018.8,017.9,000.0,027.1,020.0,8.4,0000.0,0001.39,0000.50,0000.43
2023-12-28 12:54:00,SystemResetWarning,0831.5,4.99,000.00,018.8,017.8,000.0,027.1,020.0,8.4,0000.0,0001.40,0000.51,0000.44
2023-12-28 12:55:00,SystemResetWarning,0831.6,5.00,000.00,018.8,017.8,000.0,027.1,020.0,8.4,0000.0,0001.41,0000.52,0000.45
2023-12-28 12:56:00,SystemResetWarning,0831.6,5.00,000.00,018.8,017.8,000.0,027.1,020.0,8.4,0000.0,0001.40,0000.52,0000.45
2023-12-28 12:57:00,SystemResetWarning,0831.6,5.00,000.00,018.7,017.8,000.0,027.1,020.0,8.4,0000.0,0001.44,0000.53,0000.46
2023-12-28 12:58:00,SystemResetWarning,0831.6,5.01,000.00,018.7,017.7,000.0,027.1,020.0,8.4,0000.0,0001.44,0000.53,0000.45
2023-12-28 12:59:00,SystemResetWarning,0831.6,5.00,000.00,018.7,017.7,000.0,027.1,020.0,8.4,0000.0,0001.30,0000.54,0000.46
